Location: Poughquag
(41.6090°N, 73.6820°W)
Time: 02:45:33
(UTC-04:00)

S-56A Canister/Altair - Pass Details

Date: 30 May 2020
Orbit: 633 x 2499 km, 38.9° (Epoch: 06 July)

Event Time Altitude Azimuth Distance (km) Brightness Sun altitude
Rises 09:48:13 0° 278° (W) 4,269 10.9 46.8°
Reaches altitude 10° 09:50:44 10° 275° (W) 3,513 10.6 47.3°
Maximum altitude 09:59:57 64° 197° (SSW) 2,033 10.4 48.9°
Drops below altitude 10° 10:13:19 10° 121° (ESE) 4,945 12.5 51.3°
Sets 10:17:34 0° 119° (ESE) 6,081 12.7 52.1°
